TimePDT,TemperatureF,Dew PointF,Humidity,Sea Level PressureIn,VisibilityMPH,Wind Direction,Wind SpeedMPH,Gust SpeedMPH,PrecipitationIn,Events,Conditions,WindDirDegrees,DateUTC
12:53 AM,61.0,48.9,64,29.99,10.0,NE,4.6,-,N/A,,Clear,50,2013-08-06 07:53:00
1:53 AM,60.1,46.9,62,29.98,10.0,NNE,4.6,-,N/A,,Clear,20,2013-08-06 08:53:00
2:53 AM,60.1,48.0,64,29.98,10.0,NE,3.5,-,N/A,,Clear,40,2013-08-06 09:53:00
3:53 AM,57.0,48.9,74,29.98,10.0,NE,3.5,-,N/A,,Clear,40,2013-08-06 10:53:00
4:53 AM,55.0,51.1,86,29.98,10.0,NNE,3.5,-,N/A,,Clear,20,2013-08-06 11:53:00
5:53 AM,53.1,51.1,93,29.99,10.0,North,3.5,-,N/A,,Clear,10,2013-08-06 12:53:00
6:16 AM,53.6,51.8,94,30.00,8.0,NNE,4.6,-,N/A,,Scattered Clouds,30,2013-08-06 13:16:00
6:25 AM,53.6,51.8,94,30.00,3.0,NNE,4.6,-,N/A,,Mostly Cloudy,20,2013-08-06 13:25:00
6:32 AM,53.6,51.8,94,30.00,1.8,NNE,4.6,-,N/A,,Mostly Cloudy,20,2013-08-06 13:32:00
6:45 AM,53.6,51.8,94,30.00,0.5,NNE,3.5,-,N/A,Fog,Fog,20,2013-08-06 13:45:00
6:53 AM,55.0,52.0,89,30.00,3.0,NE,3.5,-,N/A,,Mostly Cloudy,40,2013-08-06 13:53:00
7:04 AM,55.4,51.8,88,30.01,10.0,NE,4.6,-,N/A,,Clear,40,2013-08-06 14:04:00
7:53 AM,57.0,52.0,83,30.02,10.0,North,3.5,-,N/A,,Clear,10,2013-08-06 14:53:00
8:53 AM,62.1,51.1,67,30.02,10.0,Calm,Calm,-,N/A,,Clear,0,2013-08-06 15:53:00
9:53 AM,68.0,51.1,55,30.02,10.0,Calm,Calm,-,N/A,,Clear,0,2013-08-06 16:53:00
10:53 AM,68.0,53.1,59,30.02,10.0,NNE,3.5,-,N/A,,Clear,20,2013-08-06 17:53:00
11:53 AM,71.1,52.0,51,30.01,10.0,WNW,4.6,-,N/A,,Clear,300,2013-08-06 18:53:00
12:53 PM,73.9,50.0,43,30.00,10.0,West,5.8,-,N/A,,Clear,270,2013-08-06 19:53:00
1:53 PM,73.9,53.1,48,30.00,10.0,WNW,5.8,-,N/A,,Clear,290,2013-08-06 20:53:00
2:53 PM,75.9,52.0,43,29.99,10.0,Variable,5.8,-,N/A,,Clear,0,2013-08-06 21:53:00
3:53 PM,78.1,53.1,42,29.98,10.0,NNE,4.6,-,N/A,,Clear,20,2013-08-06 22:53:00
4:53 PM,77.0,53.1,43,29.97,10.0,NNW,4.6,-,N/A,,Clear,340,2013-08-06 23:53:00
5:53 PM,77.0,48.9,37,29.96,10.0,Variable,4.6,-,N/A,,Clear,0,2013-08-07 00:53:00
6:53 PM,73.9,51.1,45,29.96,10.0,North,3.5,-,N/A,,Clear,360,2013-08-07 01:53:00
7:53 PM,69.1,52.0,54,29.95,10.0,North,4.6,-,N/A,,Clear,360,2013-08-07 02:53:00
8:53 PM,64.0,51.1,63,29.96,10.0,NNE,4.6,-,N/A,,Clear,20,2013-08-07 03:53:00
9:53 PM,61.0,52.0,72,29.97,10.0,NNE,5.8,-,N/A,,Clear,20,2013-08-07 04:53:00
10:53 PM,60.1,53.1,78,29.97,10.0,NNE,3.5,-,N/A,,Clear,20,2013-08-07 05:53:00
11:53 PM,61.0,53.1,75,29.97,10.0,NE,3.5,-,N/A,,Clear,50,2013-08-07 06:53:00